Location: Arborea
(39.7744°N, 8.5819°E)
Time: 02:49:23
(UTC+00:00)

USA 229 - Pass Details

Date: 04 June 2022
Orbit: 938 x 1274 km, 63.4° (Epoch: 24 May)

Event Time Altitude Azimuth Distance (km) Brightness Sun altitude
Rises 23:08:05 0° 318° (NW) 4,042 7.5 -27.6°
Reaches altitude 10° 23:10:58 10° 310° (NW) 3,123 6.6 -27.6°
Maximum altitude 23:17:42 36° 247° (WSW) 1,849 4.7 -27.7°
Enters shadow 23:18:17 36° 238° (WSW) 1,866 4.7 -27.7°
